N931EC KTOI-KIAH

Flight info

Callsign N931EC
Flight time N/A
Altitude 43000
Route AEX DOOBI2
Aircraft C700/M-SBDGHM1RWXY/LB2

Departure

Time 2026-04-16 01:32
Airport Troy Municipal Airport at N Kenneth Campbell Field (KTOI)

Arrival

Time N/A
Airport George Bush Intercontinental Airport (KIAH)
Time Latitude Longitude Altitude Speed Heading
2026-04-16 01:26 31.86173 -86.00784 395 ft 0 kts
2026-04-16 01:30 31.86179 -86.00780 394 ft 4 kts 31°
2026-04-16 01:30 31.86216 -86.00754 396 ft 8 kts 34°
2026-04-16 01:30 31.86264 -86.00689 397 ft 14 kts 49°
2026-04-16 01:31 31.86336 -86.00695 397 ft 5 kts 277°
2026-04-16 01:31 31.86339 -86.00741 398 ft 6 kts 274°
2026-04-16 01:31 31.86332 -86.00769 399 ft 2 kts 249°
2026-04-16 01:31 31.86331 -86.00770 399 ft 0 kts 249°
2026-04-16 01:32 31.86211 -86.01133 393 ft 101 kts 250°
2026-04-16 01:32 31.85839 -86.02234 503 ft 182 kts 250°
2026-04-16 01:32 31.85646 -86.03540 2326 ft 149 kts 263°
2026-04-16 01:32 31.85601 -86.04766 3819 ft 157 kts 264°
2026-04-16 01:33 31.85560 -86.06016 5318 ft 144 kts 265°
2026-04-16 01:33 31.85541 -86.07273 6455 ft 165 kts 266°
2026-04-16 01:33 31.85497 -86.08746 7291 ft 194 kts 262°
2026-04-16 01:33 31.85379 -86.10448 8217 ft 221 kts 263°
2026-04-16 01:34 31.85254 -86.12351 9214 ft 246 kts 263°
2026-04-16 01:34 31.85110 -86.14482 9994 ft 283 kts 263°
2026-04-16 01:34 31.84941 -86.16934 10022 ft 317 kts 264°
2026-04-16 01:34 31.84757 -86.19657 10013 ft 350 kts 264°
2026-04-16 01:35 31.84556 -86.22604 10006 ft 367 kts 264°
2026-04-16 01:35 31.84350 -86.25602 10012 ft 368 kts 264°
2026-04-16 01:35 31.84150 -86.28530 11479 ft 344 kts 264°
2026-04-16 01:35 31.83964 -86.31236 13836 ft 321 kts 263°
2026-04-16 01:36 31.83776 -86.33873 15314 ft 327 kts 263°
2026-04-16 01:36 31.83588 -86.36527 16508 ft 333 kts 263°
2026-04-16 01:36 31.83399 -86.39259 17797 ft 338 kts 264°
2026-04-16 01:36 31.83203 -86.42042 18977 ft 343 kts 263°
2026-04-16 01:37 31.83005 -86.44858 20017 ft 350 kts 263°
2026-04-16 01:37 31.82801 -86.47733 21042 ft 356 kts 263°
2026-04-16 01:37 31.82593 -86.50670 22047 ft 363 kts 263°
2026-04-16 01:37 31.82380 -86.53653 23049 ft 369 kts 263°
2026-04-16 01:38 31.82162 -86.56690 23945 ft 376 kts 263°
2026-04-16 01:38 31.81942 -86.59783 24807 ft 379 kts 263°
2026-04-16 01:38 31.81719 -86.62880 25738 ft 382 kts 263°
2026-04-16 01:38 31.81497 -86.65967 26647 ft 385 kts 263°
2026-04-16 01:39 31.81268 -86.69110 27531 ft 388 kts 263°
2026-04-16 01:39 31.81038 -86.72288 28390 ft 391 kts 263°
2026-04-16 01:39 31.80804 -86.75485 29221 ft 394 kts 263°
2026-04-16 01:39 31.80569 -86.78712 30066 ft 397 kts 263°
2026-04-16 01:40 31.80329 -86.81965 30820 ft 400 kts 263°
2026-04-16 01:40 31.80089 -86.85234 31512 ft 403 kts 263°
2026-04-16 01:40 31.79845 -86.88540 32165 ft 407 kts 264°
2026-04-16 01:40 31.79598 -86.91866 32799 ft 410 kts 264°
2026-04-16 01:41 31.79346 -86.95224 33446 ft 412 kts 264°
2026-04-16 01:41 31.79099 -86.98551 34315 ft 407 kts 264°
2026-04-16 01:41 31.78852 -87.01843 35203 ft 401 kts 264°
2026-04-16 01:41 31.78610 -87.05068 36209 ft 391 kts 265°
2026-04-16 01:42 31.78373 -87.08178 37166 ft 381 kts 265°
2026-04-16 01:42 31.78142 -87.11241 38052 ft 373 kts 266°
2026-04-16 01:42 31.77912 -87.14253 38848 ft 366 kts 266°
2026-04-16 01:42 31.77688 -87.17209 39382 ft 361 kts 266°
2026-04-16 01:43 31.77462 -87.20152 39750 ft 361 kts 266°
2026-04-16 01:43 31.77238 -87.23075 40084 ft 360 kts 266°
2026-04-16 01:43 31.77013 -87.26007 40411 ft 360 kts 265°
2026-04-16 01:43 31.76786 -87.28933 40721 ft 359 kts 265°
2026-04-16 01:44 31.76560 -87.31854 41020 ft 359 kts 265°
2026-04-16 01:44 31.76333 -87.34777 41297 ft 358 kts 265°
2026-04-16 01:44 31.76106 -87.37692 41559 ft 358 kts 265°
2026-04-16 01:44 31.75879 -87.40600 41816 ft 358 kts 265°
2026-04-16 01:45 31.75652 -87.43517 42063 ft 357 kts 265°
2026-04-16 01:45 31.75422 -87.46414 42296 ft 357 kts 265°
2026-04-16 01:45 31.75194 -87.49312 42522 ft 356 kts 265°
2026-04-16 01:45 31.74966 -87.52213 42738 ft 356 kts 265°
2026-04-16 01:46 31.74736 -87.55106 42943 ft 356 kts 265°
2026-04-16 01:46 31.74506 -87.58009 43133 ft 356 kts 265°
2026-04-16 01:46 31.74273 -87.60923 43132 ft 360 kts 265°
2026-04-16 01:47 31.73799 -87.66841 43140 ft 368 kts 264°
2026-04-16 01:47 31.73316 -87.72844 43145 ft 375 kts 264°
2026-04-16 01:48 31.72816 -87.79009 43141 ft 382 kts 264°
2026-04-16 01:48 31.72305 -87.85282 43146 ft 388 kts 264°
2026-04-16 01:49 31.71780 -87.91662 43149 ft 394 kts 264°
2026-04-16 01:49 31.71516 -87.94882 43022 ft 399 kts 264°
2026-04-16 01:49 31.71296 -87.98126 43086 ft 400 kts 269°
2026-04-16 01:49 31.72125 -88.01234 43241 ft 401 kts 284°
2026-04-16 01:50 31.72446 -88.04448 43188 ft 398 kts 266°
2026-04-16 01:50 31.71145 -88.10803 43144 ft 403 kts 254°
2026-04-16 01:51 31.69648 -88.17110 43144 ft 398 kts 258°
2026-04-16 01:51 31.69042 -88.23482 43145 ft 395 kts 266°
2026-04-16 01:52 31.68622 -88.29935 43141 ft 398 kts 262°
2026-04-16 01:52 31.67992 -88.36419 43147 ft 400 kts 264°
2026-04-16 01:53 31.67472 -88.42916 43148 ft 398 kts 263°
2026-04-16 01:53 31.66896 -88.49348 43136 ft 395 kts 264°
2026-04-16 01:54 31.66347 -88.55739 43133 ft 394 kts 263°
2026-04-16 01:54 31.65781 -88.62169 43142 ft 398 kts 263°
2026-04-16 01:55 31.65214 -88.68610 43140 ft 399 kts 263°
2026-04-16 01:55 31.64642 -88.75061 43134 ft 395 kts 263°
2026-04-16 01:56 31.64073 -88.81447 43129 ft 392 kts 263°
2026-04-16 01:56 31.63500 -88.87824 43138 ft 395 kts 263°
2026-04-16 01:57 31.62919 -88.94261 43150 ft 398 kts 263°
2026-04-16 01:57 31.62334 -89.00721 43121 ft 396 kts 263°
2026-04-16 01:58 31.61750 -89.07125 43129 ft 393 kts 263°
2026-04-16 01:58 31.61264 -89.12423 43133 ft 392 kts 263°
2026-04-16 01:59 31.60578 -89.19850 43133 ft 395 kts 263°
2026-04-16 01:59 31.59984 -89.26270 43150 ft 397 kts 262°
2026-04-16 02:00 31.59481 -89.31664 43136 ft 395 kts 262°
2026-04-16 02:00 31.58886 -89.38001 43125 ft 392 kts 262°
2026-04-16 02:01 31.58291 -89.44333 43122 ft 391 kts 262°
2026-04-16 02:01 31.57690 -89.50673 43132 ft 393 kts 262°
2026-04-16 02:02 31.57080 -89.57080 43140 ft 395 kts 262°
2026-04-16 02:02 31.56469 -89.63476 43142 ft 394 kts 262°
2026-04-16 02:03 31.55854 -89.69846 43142 ft 391 kts 262°
2026-04-16 02:03 31.55244 -89.76164 43145 ft 390 kts 262°
2026-04-16 02:04 31.54313 -89.85718 43141 ft 395 kts 262°
2026-04-16 02:04 31.53686 -89.92117 43134 ft 394 kts 262°
2026-04-16 02:05 31.53060 -89.98481 43135 ft 391 kts 262°
2026-04-16 02:05 31.52439 -90.04749 43135 ft 389 kts 262°
2026-04-16 02:06 31.51805 -90.11122 43145 ft 393 kts 262°
2026-04-16 02:06 31.51166 -90.17507 43138 ft 395 kts 261°
2026-04-16 02:07 31.50524 -90.23888 43105 ft 391 kts 261°
2026-04-16 02:07 31.49892 -90.30153 43110 ft 389 kts 261°
2026-04-16 02:08 31.49248 -90.36491 43123 ft 393 kts 261°
2026-04-16 02:08 31.48596 -90.42877 43132 ft 395 kts 261°
2026-04-16 02:09 31.47944 -90.49234 43124 ft 391 kts 261°
2026-04-16 02:09 31.47294 -90.55540 43124 ft 389 kts 261°
2026-04-16 02:10 31.46639 -90.61857 43123 ft 392 kts 261°
2026-04-16 02:10 31.45975 -90.68233 43128 ft 395 kts 261°
2026-04-16 02:11 31.45310 -90.74595 43120 ft 393 kts 261°
2026-04-16 02:11 31.44644 -90.80934 43096 ft 390 kts 261°
2026-04-16 02:12 31.43983 -90.87185 43099 ft 390 kts 261°
2026-04-16 02:12 31.43311 -90.93525 43099 ft 393 kts 261°
2026-04-16 02:13 31.42631 -90.99889 43101 ft 395 kts 261°
2026-04-16 02:13 31.41951 -91.06249 43125 ft 391 kts 261°
2026-04-16 02:14 31.41278 -91.12501 43114 ft 389 kts 261°
2026-04-16 02:14 31.40594 -91.18827 43090 ft 392 kts 260°
2026-04-16 02:15 31.39904 -91.25189 43093 ft 395 kts 260°
2026-04-16 02:15 31.39214 -91.31499 43095 ft 392 kts 260°
2026-04-16 02:16 31.38521 -91.37812 43093 ft 389 kts 260°
2026-04-16 02:16 31.37830 -91.44083 43091 ft 390 kts 260°
2026-04-16 02:17 31.37130 -91.50414 43087 ft 393 kts 260°